Weather History for KFAY - July, 2013

Change the Weather History Date:

Friday, July 5, 2013

  Actual Average Record
Temperature  
Mean Temperature 81 °F 81 °F  
Max Temperature 90 °F 91 °F 101 °F (2002)
Min Temperature 72 °F 71 °F 51 °F (1933)
Degree Days  
Heating Degree Days 0 0  
Month to date heating degree days 0 0  
Since 1 June heating degree days 0 0  
Since 1 July heating degree days 0 0  
Cooling Degree Days 16 16  
Month to date cooling degree days 74 80  
Year to date cooling degree days 718 760  
Since 1 June cooling degree days 469 476  
Growing Degree Days 30 (Base 50)    
Moisture  
Dew Point 73 °F    
Average Humidity 78    
Maximum Humidity 100    
Minimum Humidity 56    
Precipitation  
Precipitation 0.16 in 0.17 in 2.03 in (1953)
Month to date precipitation 2.67 0.82  
Year to date precipitation 24.59 20.84  
Sea Level Pressure  
Sea Level Pressure 30.23 in    
Wind  
Wind Speed 6 mph (SE)    
Max Wind Speed 18 mph    
Max Gust Speed 23 mph    
Visibility 7 miles    
Events Fog , Rain    
T = Trace of Precipitation, MM = Missing Value Source: NWS Daily Summary

Daily Weather History Graph

Daily Weather History Graph

Search for Another Location

Airport or City:

Trip Planner

Search our weather history database for the weather conditions in past years. The results will help you decide how hot, cold, wet, or windy it might be!

Date:

Astronomy

Jul. 05, 2013 Rise Set
Actual Time 6:07 AM EDT 8:32 PM EDT
Civil Twilight 5:37 AM EDT 9:02 PM EDT
Nautical Twilight 5:01 AM EDT 9:38 PM EDT
Astronomical Twilight 4:21 AM EDT 10:18 PM EDT
Moon 4:03 AM EDT (7/5) 6:28 PM EDT (7/5)
Length of Visible Light 15h 24m
Length of Day
14h 25m
Waning Crescent, 6% of the Moon is Illuminated
Jul 5
Waning Crescent
Jul 8
New
Jul 15
First Quarter
Jul 22
Full
Jul 29
Last Quarter

Hourly Weather History & Observations

Time (EDT) Temp. Heat Index Dew Point Humidity Pressure Visibility Wind Dir Wind Speed Gust Speed Precip Events Conditions
12:53 AM 73.9 °F - 72.0 °F 93% 30.24 in 10.0 mi SSE 3.5 mph - N/A   Clear
1:53 AM 73.9 °F - 72.0 °F 93% 30.24 in 9.0 mi SE 4.6 mph - N/A   Clear
2:53 AM 73.0 °F - 72.0 °F 96% 30.22 in 7.0 mi ESE 5.8 mph - N/A   Clear
3:53 AM 73.0 °F - 72.0 °F 96% 30.22 in 8.0 mi Calm Calm - N/A   Clear
4:26 AM 73.4 °F - 71.6 °F 94% 30.23 in 7.0 mi Calm Calm - N/A   Partly Cloudy
4:51 AM 71.6 °F - 71.6 °F 100% 30.24 in 4.0 mi Calm Calm - N/A   Mostly Cloudy
4:53 AM 72.0 °F - 71.1 °F 97% 30.22 in 2.0 mi Calm Calm - N/A   Mostly Cloudy
5:00 AM 71.6 °F - 71.6 °F 100% 30.24 in 1.0 mi Calm Calm - N/A   Mostly Cloudy
5:11 AM 71.6 °F - 71.6 °F 100% 30.24 in 0.8 mi Calm Calm - N/A   Overcast
5:49 AM 71.6 °F - 71.6 °F 100% 30.24 in 0.2 mi Calm Calm - N/A Fog Fog
5:53 AM 72.0 °F - 71.1 °F 97% 30.23 in 0.2 mi Calm Calm - N/A Fog Fog
6:12 AM 71.6 °F - 71.6 °F 100% 30.25 in 0.2 mi Calm Calm - N/A Fog Fog
6:22 AM 71.6 °F - 71.6 °F 100% 30.25 in 0.8 mi Calm Calm - N/A   Mist
6:38 AM 71.6 °F - 71.6 °F 100% 30.25 in 0.2 mi Calm Calm - N/A Fog Fog
6:53 AM 72.0 °F - 72.0 °F 100% 30.24 in 0.2 mi ESE 4.6 mph - N/A Fog Fog
7:53 AM 73.9 °F - 73.0 °F 97% 30.25 in 0.8 mi SSE 5.8 mph - 0.01 in   Mist
8:00 AM 73.4 °F - 73.4 °F 100% 30.27 in 2.0 mi SSE 4.6 mph - N/A   Overcast
8:18 AM 75.2 °F - 73.4 °F 94% 30.28 in 5.0 mi SSE 4.6 mph - N/A   Overcast
8:53 AM 75.9 °F - 73.9 °F 94% 30.26 in 10.0 mi South 5.8 mph - N/A   Overcast
9:15 AM 78.8 °F - 75.2 °F 89% 30.28 in 10.0 mi SSE 5.8 mph - N/A   Mostly Cloudy
9:23 AM 80.6 °F 86.2 °F 75.2 °F 84% 30.28 in 10.0 mi SE 8.1 mph - N/A   Mostly Cloudy
9:30 AM 80.6 °F 85.4 °F 73.4 °F 79% 30.27 in 10.0 mi SSE 5.8 mph - N/A   Mostly Cloudy
9:53 AM 82.0 °F 87.9 °F 73.9 °F 76% 30.26 in 10.0 mi SSE 5.8 mph - N/A   Partly Cloudy
10:53 AM 84.0 °F 90.2 °F 73.0 °F 69% 30.26 in 10.0 mi SSE 5.8 mph - N/A   Partly Cloudy
11:53 AM 86.0 °F 93.0 °F 73.0 °F 65% 30.25 in 10.0 mi ESE 6.9 mph - N/A   Clear
12:53 PM 89.1 °F 96.0 °F 72.0 °F 57% 30.24 in 10.0 mi SE 8.1 mph - N/A   Scattered Clouds
1:53 PM 88.0 °F 93.8 °F 71.1 °F 57% 30.22 in 10.0 mi SE 8.1 mph - N/A   Partly Cloudy
2:53 PM 80.1 °F 84.5 °F 73.9 °F 81% 30.23 in 10.0 mi SE 10.4 mph - 0.01 in Rain Light Rain
3:53 PM 84.9 °F 91.4 °F 73.0 °F 67% 30.19 in 10.0 mi SSE 10.4 mph - 0.00 in   Scattered Clouds
4:53 PM 86.0 °F 93.8 °F 73.9 °F 67% 30.17 in 10.0 mi ESE 10.4 mph 17.3 mph N/A   Partly Cloudy
5:39 PM 80.6 °F 85.4 °F 73.4 °F 79% 30.18 in 1.0 mi ESE 3.5 mph 23.0 mph 0.14 in Rain Light Rain
5:50 PM 82.4 °F 88.2 °F 73.4 °F 74% 30.18 in 10.0 mi SE 4.6 mph - 0.14 in   Scattered Clouds
5:53 PM 82.0 °F 87.9 °F 73.9 °F 76% 30.17 in 10.0 mi SE 4.6 mph - 0.14 in   Scattered Clouds
6:53 PM 82.9 °F 90.2 °F 75.0 °F 77% 30.17 in 10.0 mi ESE 9.2 mph - N/A   Mostly Cloudy
7:53 PM 81.0 °F 87.3 °F 75.9 °F 85% 30.18 in 10.0 mi SE 5.8 mph - N/A   Clear
8:53 PM 79.0 °F - 73.0 °F 82% 30.19 in 10.0 mi SSE 9.2 mph - N/A   Clear
9:53 PM 78.1 °F - 73.0 °F 84% 30.23 in 10.0 mi South 6.9 mph - N/A   Clear
10:53 PM 77.0 °F - 73.0 °F 88% 30.24 in 10.0 mi SSE 4.6 mph - N/A   Clear
11:53 PM 75.9 °F - 73.0 °F 91% 30.24 in 10.0 mi South 3.5 mph - N/A   Clear